This is the latest recevied weather packets stored in our database for station/object DL6MAA-11. If no packets are shown the sender has not sent any weather packets the latest 10 day(s).
| Time | Temp. | Humidity | Pressure | Rain* | Wind** | Luminosity | Snow |
|---|---|---|---|---|---|---|---|
| 1777714327 | 21.11° C | 39% | 1019.5 hPa | 0 mm | - | 35 W/m² | - |
| 1777714031 | 20.56° C | 40% | 1019.9 hPa | 0 mm | - | 33 W/m² | - |
| 1777713724 | 20.56° C | 39% | 1019.9 hPa | 0 mm | - | 35 W/m² | - |
| 1777713427 | 20.56° C | 41% | 1019.9 hPa | 0 mm | - | 37 W/m² | - |
| 1777713134 | 20° C | 42% | 1019.9 hPa | 0 mm | - | 37 W/m² | - |
| 1777712841 | 20° C | 42% | 1019.9 hPa | 0 mm | - | 37 W/m² | - |
| 1777712526 | 19.44° C | 43% | 1019.9 hPa | 0 mm | - | 37 W/m² | - |
| 1777712236 | 19.44° C | 44% | 1019.9 hPa | 0 mm | - | 33 W/m² | - |
| 1777711937 | 19.44° C | 44% | 1019.9 hPa | 0 mm | - | 33 W/m² | - |
| 1777711625 | 19.44° C | 46% | 1019.9 hPa | 0 mm | - | 33 W/m² | - |
| 1777711329 | 18.89° C | 45% | 1020.2 hPa | 0 mm | - | 44 W/m² | - |
| 1777711033 | 18.89° C | 47% | 1020.2 hPa | 0 mm | - | 120 W/m² | - |
| 1777710735 | 18.89° C | 49% | 1020.2 hPa | 0 mm | - | 278 W/m² | - |
| 1777710421 | 18.33° C | 46% | 1020.2 hPa | 0 mm | - | 399 W/m² | - |
| 1777710133 | 18.33° C | 45% | 1020.2 hPa | 0 mm | - | 429 W/m² | - |
| 1777709529 | 18.33° C | 48% | 1020.1 hPa | 0 mm | - | 424 W/m² | - |
| 1777709238 | 17.22° C | 48% | 1020.1 hPa | 0 mm | - | 418 W/m² | - |
| 1777708940 | 17.22° C | 49% | 1020.1 hPa | 0 mm | - | 410 W/m² | - |
| 1777708623 | 16.67° C | 48% | 1020.2 hPa | 0 mm | - | 396 W/m² | - |
| 1777708331 | 16.67° C | 50% | 1020.2 hPa | 0 mm | - | 388 W/m² | - |
| 1777708039 | 16.11° C | 52% | 1020.2 hPa | 0 mm | - | 380 W/m² | - |
| 1777707724 | 16.11° C | 49% | 1020.4 hPa | 0 mm | - | 380 W/m² | - |
| 1777707438 | 16.11° C | 53% | 1020.4 hPa | 0 mm | - | 369 W/m² | - |
| 1777707121 | 15.56° C | 50% | 1020.4 hPa | 0 mm | - | 360 W/m² | - |
| 1777706827 | 15° C | 53% | 1020.7 hPa | 0 mm | - | 355 W/m² | - |
* Rain since midnight (hover to see other rain measurements)
** Current wind speed in m/s (hover to see current wind gust speed)